Tracking 28790 objects as of 19-Apr-2024
HD Live streaming from Space Station
objects crossing your sky now

AYAME 1 DEB

Track AYAME 1 DEB now!


NORAD ID: 32483
Int'l Code: 1979-009D
Perigee: 12,359.5 km
Apogee: 34,338.2 km
Inclination: 9.6 °
Period: 849.8 minutes
Semi major axis: 29719 km
RCS: 0.003 m2 (small)
Launch date: February 6, 1979
Source: Japan (JPN)
Launch site: TANEGASHIMA SPACE CENTER (TNSTA)

Note: This is SATELLITE DEBRIS
Your satellite tracking list
Your tracking list is empty




NASA's NSSDC Master Catalog

Two Line Element Set (TLE):
1 32483U 79009D   24109.22180819 -.00000146  00000-0  00000-0 0  9994
2 32483   9.5838 328.9402 3697639  91.4551  47.7903  1.69446491 99643
Source of the keplerian elements: AFSPC